Regional Weather Roundup
Issued by NWS

Home | Current Version | Previous Version | Graphics & Text | Print | Product List | Glossary Off
Versions: 1 2 3 4 5 6 7 8 9 10 11 12 13 14 15 16 17 18 19 20 21 22 23 24 25 26 27 28 29 30 31 32 33 34 35 36 37 38 39 40 41 42 43 44 45 46 47 48 49 50

000
ASUS43 KMKX 231500
RWRWI

WISCONSIN REGIONAL WEATHER ROUNDUP
NATIONAL WEATHER SERVICE MILWAUKEE/SULLIVAN WI
1000 AM CDT MON OCT 23 2017

NOTE: "FAIR" INDICATES FEW OR NO CLOUDS BELOW 12,000 FEET WITH NO
SIGNIFICANT WEATHER AND/OR OBSTRUCTIONS TO VISIBILITY.

WIZ001-002-006>008-014>016-023>028-231600-
NORTHWEST WISCONSIN

CITY           SKY/WX    TMP DP  RH WIND       PRES   REMARKS
SUPERIOR ARPT  SUNNY     55  38  52 SW8       29.68F
ASHLAND        CLOUDY    53  39  59 S12       29.72F
HAYWARD        CLOUDY    50  38  63 S7        29.74S
SIREN          SUNNY     54  36  50 SW6       29.73R
CUMBERLAND     CLOUDY    50  37  62 S12       29.75F
RICE LAKE      CLOUDY    47  40  75 SE6       29.77F
CHETEK         CLOUDY    49  40  73 S7        29.76F
LADYSMITH      PTSUNNY   48  41  75 S7        29.80S
EAU CLAIRE     NOT AVBL
MENOMONIE      CLOUDY    52  39  61 S5        29.77F
NEW RICHMOND   MOSUNNY   52  37  55 S9        29.77R
OSCEOLA        SUNNY     54  38  55 W6        29.77S
$$

WIZ003>005-009-010-017-018-231600-
NORTH CENTRAL WISCONSIN

CITY           SKY/WX    TMP DP  RH WIND       PRES   REMARKS
MANITOWISH WTR CLOUDY    48  42  80 S9        29.78S
ARBOR VITAE    CLOUDY    49  42  75 S8        29.80S
WOODRUFF       CLOUDY    49  42  75 S8        29.80S
RHINELANDER    PTSUNNY   49  40  71 S8        29.81F
EAGLE RIVER    NOT AVBL
LAND O LAKES   SUNNY     47  41  78 S8        29.81F
PHILLIPS       CLOUDY    47  39  75 S10       29.77F
TOMAHAWK       CLOUDY    45  42  89 S5        29.82S
MEDFORD        CLOUDY    42  39  89 SE8       29.81S
MERRILL        CLOUDY    46  42  86 S3        29.83F
$$

WIZ029-030-035-036-043>047-231600-
CENTRAL WISCONSIN

CITY           SKY/WX    TMP DP  RH WIND       PRES   REMARKS
WAUSAU         MOSUNNY   46  42  86 VRB5      29.80F
MOSINEE        PTSUNNY   43  43 100 CALM      29.83F
MARSHFIELD     MOSUNNY   47  41  80 S7        29.80F
STEVENS POINT  CLOUDY    42  42 100 CALM      29.83F
WAUPACA        FOG       44  43  97 SE5       29.85F VSB<1/4
WAUTOMA        CLOUDY   N/A N/A N/A SE5       29.85F FOG
WISC RAPIDS    CLOUDY    46  42  86 S5        29.82F
CAMP DOUGLAS   NOT AVBL
$$

WIZ011>013-019>022-031-037>040-048>050-231600-
NORTHEAST WISCONSIN

CITY           SKY/WX    TMP DP  RH WIND       PRES   REMARKS
ANTIGO         CLOUDY    42  40  90 S6        29.83F
SHAWANO        FOG       44  42  96 SE3       29.85F VSB 1/2
OCONTO         CLOUDY    43  43 100 NW3       29.86F VSB<1/4
STURGEON BAY   CLOUDY    47  47 100 CALM      29.86F
GREEN BAY      FOG       46  46 100 CALM      29.86F VSB 1/4
MANITOWOC      CLOUDY    48  47  96 N3        29.86F
APPLETON       PTSUNNY   46  46 100 CALM      29.84F
CLINTONVILLE   FOG       43  43 100 E3        29.84F VSB<1/4
OSHKOSH        CLOUDY    48  46  93 SE3       29.84F
$$

WIZ032>034-041-042-053>061-231600-
SOUTHWEST WISCONSIN

CITY           SKY/WX    TMP DP  RH WIND       PRES   REMARKS
LA CROSSE      CLOUDY    51  44  77 S12       29.81F
SPARTA         MOSUNNY   46  43  88 CALM      29.82F
VIROQUA        CLOUDY    47  43  88 S7        29.82F
BOSCOBEL       FOG       43  42  97 CALM      29.85F VSB 1/2
PRAIRIE DU CHI CLOUDY    47  43  88 CALM      29.84F
PLATTEVILLE    CLOUDY    46  46 100 S6        29.87S
$$

WIZ056-057-062-063-064-067-068-231600-
SOUTH CENTRAL WISCONSIN

CITY           SKY/WX    TMP DP  RH WIND       PRES   REMARKS
REEDSBURG      CLOUDY    44  44 100 CALM      29.84F
BARABOO/DELLS  CLOUDY    45  44  97 CALM      29.84F
LONE ROCK      FOG       43  43 100 E6        29.86R VSB 1
MINERAL POINT  CLOUDY    46  46 100 S5        29.87R
MADISON        CLOUDY    47  45  93 CALM      29.86S
MIDDLETON      CLOUDY    46  46 100 CALM      29.87S
WATERTOWN      CLOUDY    46  46 100 CALM      29.84F FOG
MONROE         CLOUDY    46  45  93 W6        29.87R
JANESVILLE     CLOUDY    48  48 100 CALM      29.85F
$$

WIZ051-052-058>065-066-070>072-231600-
SOUTHEAST WISCONSIN

CITY           SKY/WX    TMP DP  RH WIND       PRES   REMARKS
MILWAUKEE      CLOUDY    52  49  89 N3        29.85F
WAUKESHA       SUNNY     46  45  93 NW3       29.86F
MILWAUKEE/TIMM SUNNY     48  45  87 N5        29.85F
RACINE         CLOUDY    52  50  93 NE5       29.86F
BURLINGTON     CLOUDY    48  48 100 CALM      29.86S
KENOSHA        CLOUDY    51  48  89 NE5       29.85F
FOND DU LAC    CLOUDY    48  45  89 CALM      29.84F
SHEBOYGAN      CLOUDY    49  49 100 CALM      29.85F
WEST BEND      CLOUDY    46  46 100 N3        29.86F
JUNEAU         CLOUDY    45  45  99 CALM      29.86F FOG
$$

LSZ147-162-231600-
LAKE SUPERIOR

STATION/POSITION TIME  TEMP    WIND        PRES    WAVE
                       AIR SEA DIR/SP/G            HT/PER
                 (UTC) (F)     (DEG/KT/KT) (MB)    (FT/S)
W MID LAKE BUOY  1350   52 51              1006.1F   3/ 5
DEVILS ISLAND    1400   54     200/  7/ 10 1006.3R
SAXON HARBOR     1440   55     190/  9/ 15 1006.1S
$$

LMZ867-665-643>646-231600-
LAKE MICHIGAN

STATION/POSITION TIME  TEMP    WIND        PRES    WAVE
                       AIR SEA DIR/SP/G            HT/PER
                 (UTC) (F)     (DEG/KT/KT) (MB)    (FT/S)
S GREEN BAY BUOY 1430   51 58  200/  2/  4 1011.2F
N MID LAKE BUOY  1350   52 57  260/  4/  6 1012.9F   1
NORTHPORT PIER   1440   49     160/  3/  4 1011.5F
KEWAUNEE LAKESHO 1430   45      CALM  /  1 1010.9F
SHEBOYGAN LAKESH 1400   48     340/  4/  5 1011.8F
PORT WASHINGTON  1430   51     340/  3/  7 1011.9F
MILWAUKEE LAKESH 1430   51     350/  5/  6   N/A
S MID LAKE BUOY  1350   55 60   20/ 19/ 23 1010.3F   3/ 5
KENOSHA   LAKESH 1400   51      30/ 11/ 14 1010.8
$$

TC  - TEMPERATURE IN CELSIUS
VSB - VISIBILITY IN STATUTE MILES
WCI - WIND CHILL INDEX
HX  - HEAT INDEX





USA.gov is the U.S. government's official web portal to all federal, state and local government web resources and services.